Year,Month,Day,Hour,Minute,Value (Times are PST for temperature in C)
2018,04,26,00,00,10.70
2018,04,26,00,01,10.60
2018,04,26,00,02,10.60
2018,04,26,00,03,10.70
2018,04,26,00,04,10.70
2018,04,26,00,05,10.70
2018,04,26,00,06,10.70
2018,04,26,00,07,10.80
2018,04,26,00,08,10.80
2018,04,26,00,09,10.80
2018,04,26,00,10,10.80
2018,04,26,00,11,10.80
2018,04,26,00,12,10.90
2018,04,26,00,13,10.90
2018,04,26,00,14,10.90
2018,04,26,00,15,10.90
2018,04,26,00,16,10.90
2018,04,26,00,17,10.80
2018,04,26,00,18,10.80
2018,04,26,00,19,10.80
2018,04,26,00,20,10.80
2018,04,26,00,21,10.80
2018,04,26,00,22,10.70
2018,04,26,00,23,10.70
2018,04,26,00,24,10.70
2018,04,26,00,25,10.70
2018,04,26,00,26,10.70
2018,04,26,00,27,10.70
2018,04,26,00,28,10.70
2018,04,26,00,29,10.70
2018,04,26,00,30,10.70
2018,04,26,00,31,10.70
2018,04,26,00,32,10.70
2018,04,26,00,33,10.70
2018,04,26,00,34,10.70
2018,04,26,00,35,10.70
2018,04,26,00,36,10.70
2018,04,26,00,37,10.70
2018,04,26,00,38,10.80
2018,04,26,00,39,10.80
2018,04,26,00,40,10.80
2018,04,26,00,41,10.80
2018,04,26,00,42,10.80
2018,04,26,00,43,10.80
2018,04,26,00,44,10.70
2018,04,26,00,45,10.70
2018,04,26,00,46,10.70
2018,04,26,00,47,10.60
2018,04,26,00,48,10.60
2018,04,26,00,49,10.50
2018,04,26,00,50,10.40
2018,04,26,00,51,10.40
2018,04,26,00,52,10.40
2018,04,26,00,53,10.40
2018,04,26,00,54,10.40
2018,04,26,00,55,10.40
2018,04,26,00,56,10.30
2018,04,26,00,57,10.30
2018,04,26,00,58,10.30
2018,04,26,00,59,10.30
2018,04,26,01,00,10.30
2018,04,26,01,01,10.30
2018,04,26,01,02,10.40
2018,04,26,01,03,10.40
2018,04,26,01,04,10.40
2018,04,26,01,05,10.40
2018,04,26,01,06,10.40
2018,04,26,01,07,10.40
2018,04,26,01,08,10.30
2018,04,26,01,09,10.30
2018,04,26,01,10,10.30
2018,04,26,01,11,10.30
2018,04,26,01,12,10.20
2018,04,26,01,13,10.20
2018,04,26,01,14,10.20
2018,04,26,01,15,10.10
2018,04,26,01,16,10.10
2018,04,26,01,17,10.10
2018,04,26,01,18,10.00
2018,04,26,01,19,10.00
2018,04,26,01,20,9.90
2018,04,26,01,21,9.90
2018,04,26,01,22,9.90
2018,04,26,01,23,9.90
2018,04,26,01,24,9.80
2018,04,26,01,25,9.80
2018,04,26,01,26,9.80
2018,04,26,01,27,9.80
2018,04,26,01,28,9.80
2018,04,26,01,29,9.80
2018,04,26,01,30,9.80
2018,04,26,01,31,9.80
2018,04,26,01,32,9.80
2018,04,26,01,33,9.80
2018,04,26,01,34,9.80
2018,04,26,01,35,9.80
2018,04,26,01,36,9.80
2018,04,26,01,37,9.80
2018,04,26,01,38,9.80
2018,04,26,01,39,9.80
2018,04,26,01,40,9.80
2018,04,26,01,41,9.80
2018,04,26,01,42,9.80
2018,04,26,01,43,9.80
2018,04,26,01,44,9.80
2018,04,26,01,45,9.80
2018,04,26,01,46,9.80
2018,04,26,01,47,9.80
2018,04,26,01,48,9.80
2018,04,26,01,49,9.80
2018,04,26,01,50,9.80
2018,04,26,01,51,9.80
2018,04,26,01,52,9.80
2018,04,26,01,53,9.90
2018,04,26,01,54,9.80
2018,04,26,01,55,9.80
2018,04,26,01,56,9.80
2018,04,26,01,57,9.80
2018,04,26,01,58,9.80
2018,04,26,01,59,9.80
2018,04,26,02,00,9.90
2018,04,26,02,01,9.90
2018,04,26,02,02,10.00
2018,04,26,02,03,10.00
2018,04,26,02,04,10.00
2018,04,26,02,05,10.00
2018,04,26,02,06,10.00
2018,04,26,02,07,10.00
2018,04,26,02,08,10.00
2018,04,26,02,09,10.00
2018,04,26,02,10,10.00
2018,04,26,02,11,10.00
2018,04,26,02,12,10.00
2018,04,26,02,13,10.00
2018,04,26,02,14,10.00
2018,04,26,02,15,9.90
2018,04,26,02,16,9.90
2018,04,26,02,17,10.00
2018,04,26,02,18,10.00
2018,04,26,02,19,10.00
2018,04,26,02,20,10.00
2018,04,26,02,21,10.10
2018,04,26,02,22,10.10
2018,04,26,02,23,10.10
2018,04,26,02,24,10.00
2018,04,26,02,25,10.00
2018,04,26,02,26,10.00
2018,04,26,02,27,10.00
2018,04,26,02,28,9.90
2018,04,26,02,29,9.90
2018,04,26,02,30,9.90
2018,04,26,02,31,9.90
2018,04,26,02,32,9.90
2018,04,26,02,33,9.90
2018,04,26,02,34,9.90
2018,04,26,02,35,9.80
2018,04,26,02,36,9.80
2018,04,26,02,37,9.80
2018,04,26,02,38,9.90
2018,04,26,02,39,9.90
2018,04,26,02,40,9.90
2018,04,26,02,41,9.90
2018,04,26,02,42,9.90
2018,04,26,02,43,9.90
2018,04,26,02,44,9.80
2018,04,26,02,45,9.80
2018,04,26,02,46,9.80
2018,04,26,02,47,9.80
2018,04,26,02,48,9.70
2018,04,26,02,49,9.70
2018,04,26,02,50,9.60
2018,04,26,02,51,9.50
2018,04,26,02,52,9.40
2018,04,26,02,53,9.40
2018,04,26,02,54,9.30
2018,04,26,02,55,9.20
2018,04,26,02,56,9.20
2018,04,26,02,57,9.20
2018,04,26,02,58,9.10
2018,04,26,02,59,9.10
2018,04,26,03,00,9.00
2018,04,26,03,01,9.00
2018,04,26,03,02,8.90
2018,04,26,03,03,8.90
2018,04,26,03,04,8.90
2018,04,26,03,05,8.90
2018,04,26,03,06,8.80
2018,04,26,03,07,8.80
2018,04,26,03,08,8.80
2018,04,26,03,09,8.80
2018,04,26,03,10,8.80
2018,04,26,03,11,8.70
2018,04,26,03,12,8.70
2018,04,26,03,13,8.70
2018,04,26,03,14,8.70
2018,04,26,03,15,8.60
2018,04,26,03,16,8.60
2018,04,26,03,17,8.60
2018,04,26,03,18,8.60
2018,04,26,03,19,8.60
2018,04,26,03,20,8.60
2018,04,26,03,21,8.60
2018,04,26,03,22,8.60
2018,04,26,03,23,8.60
2018,04,26,03,24,8.60
2018,04,26,03,25,8.60
2018,04,26,03,26,8.60
2018,04,26,03,27,8.50
2018,04,26,03,28,8.50
2018,04,26,03,29,8.50
2018,04,26,03,30,8.40
2018,04,26,03,31,8.40
2018,04,26,03,32,8.40
2018,04,26,03,33,8.30
2018,04,26,03,34,8.30
2018,04,26,03,35,8.30
2018,04,26,03,36,8.30
2018,04,26,03,37,8.30
2018,04,26,03,38,8.30
2018,04,26,03,39,8.30
2018,04,26,03,40,8.30
2018,04,26,03,41,8.20
2018,04,26,03,42,8.20
2018,04,26,03,43,8.20
2018,04,26,03,44,8.10
2018,04,26,03,45,8.10
2018,04,26,03,46,8.10
2018,04,26,03,47,8.10
2018,04,26,03,48,8.10
2018,04,26,03,49,8.10
2018,04,26,03,50,8.10
2018,04,26,03,51,8.10
2018,04,26,03,52,8.10
2018,04,26,03,53,8.10
2018,04,26,03,54,8.10
2018,04,26,03,55,8.10
2018,04,26,03,56,8.00
2018,04,26,03,57,8.00
2018,04,26,03,58,8.00
2018,04,26,03,59,8.00
2018,04,26,04,00,8.00
2018,04,26,04,01,8.00
2018,04,26,04,02,8.00
2018,04,26,04,03,8.00
2018,04,26,04,04,8.00
2018,04,26,04,05,7.90
2018,04,26,04,06,7.90
2018,04,26,04,07,8.00
2018,04,26,04,08,8.00
2018,04,26,04,09,7.90
2018,04,26,04,10,7.90
2018,04,26,04,11,7.90
2018,04,26,04,12,7.90
2018,04,26,04,13,7.90
2018,04,26,04,14,7.80
2018,04,26,04,15,7.80
2018,04,26,04,16,7.80
2018,04,26,04,17,7.80
2018,04,26,04,18,7.80
2018,04,26,04,19,7.80
2018,04,26,04,20,7.90
2018,04,26,04,21,7.90
2018,04,26,04,22,7.80
2018,04,26,04,23,7.80
2018,04,26,04,24,7.80
2018,04,26,04,25,7.80
2018,04,26,04,26,7.80
2018,04,26,04,27,7.80
2018,04,26,04,28,7.80
2018,04,26,04,29,7.70
2018,04,26,04,30,7.70
2018,04,26,04,31,7.70
2018,04,26,04,32,7.70
2018,04,26,04,33,7.70
2018,04,26,04,34,7.70
2018,04,26,04,35,7.70
2018,04,26,04,36,7.70
2018,04,26,04,37,7.70
2018,04,26,04,38,7.70
2018,04,26,04,39,7.70
2018,04,26,04,40,7.70
2018,04,26,04,41,7.70
2018,04,26,04,42,7.70
2018,04,26,04,43,7.60
2018,04,26,04,44,7.60
2018,04,26,04,45,7.60
2018,04,26,04,46,7.60
2018,04,26,04,47,7.60
2018,04,26,04,48,7.60
2018,04,26,04,49,7.50
2018,04,26,04,50,7.50
2018,04,26,04,51,7.50
2018,04,26,04,52,7.50
2018,04,26,04,53,7.50
2018,04,26,04,54,7.40
2018,04,26,04,55,7.40
2018,04,26,04,56,7.40
2018,04,26,04,57,7.40
2018,04,26,04,58,7.40
2018,04,26,04,59,7.40
2018,04,26,05,00,7.40
2018,04,26,05,01,7.40
2018,04,26,05,02,7.40
2018,04,26,05,03,7.40
2018,04,26,05,04,7.40
2018,04,26,05,05,7.40
2018,04,26,05,06,7.40
2018,04,26,05,07,7.30
2018,04,26,05,08,7.30
2018,04,26,05,09,7.30
2018,04,26,05,10,7.30
2018,04,26,05,11,7.30
2018,04,26,05,12,7.30
2018,04,26,05,13,7.30
2018,04,26,05,14,7.20
2018,04,26,05,15,7.20
2018,04,26,05,16,7.20
2018,04,26,05,17,7.20
2018,04,26,05,18,7.20
2018,04,26,05,19,7.10
2018,04,26,05,20,7.10
2018,04,26,05,21,7.10
2018,04,26,05,22,7.10
2018,04,26,05,23,7.10
2018,04,26,05,24,7.10
2018,04,26,05,25,7.00
2018,04,26,05,26,7.10
2018,04,26,05,27,7.10
2018,04,26,05,28,7.10
2018,04,26,05,29,7.00
2018,04,26,05,30,7.00
2018,04,26,05,31,7.10
2018,04,26,05,32,7.10
2018,04,26,05,33,7.10
2018,04,26,05,34,7.10
2018,04,26,05,35,7.10
2018,04,26,05,36,7.10
2018,04,26,05,37,7.10
2018,04,26,05,38,7.00
2018,04,26,05,39,7.00
2018,04,26,05,40,7.00
2018,04,26,05,41,7.00
2018,04,26,05,42,6.90
2018,04,26,05,43,6.90
2018,04,26,05,44,6.90
2018,04,26,05,45,6.90
2018,04,26,05,46,6.90
2018,04,26,05,47,6.90
2018,04,26,05,48,6.90
2018,04,26,05,49,6.90
2018,04,26,05,50,6.90
2018,04,26,05,51,6.90
2018,04,26,05,52,6.90
2018,04,26,05,53,6.90
2018,04,26,05,54,6.80
2018,04,26,05,55,6.80
2018,04,26,05,56,6.80
2018,04,26,05,57,6.80
2018,04,26,05,58,6.80
2018,04,26,05,59,6.80
2018,04,26,06,00,6.80
2018,04,26,06,01,6.80
2018,04,26,06,02,6.80
2018,04,26,06,03,6.80
2018,04,26,06,04,6.80
2018,04,26,06,05,6.80
2018,04,26,06,06,6.80
2018,04,26,06,07,6.80
2018,04,26,06,08,6.80
2018,04,26,06,09,6.80
2018,04,26,06,10,6.70
2018,04,26,06,11,6.70
2018,04,26,06,12,6.70
2018,04,26,06,13,6.70
2018,04,26,06,14,6.80
2018,04,26,06,15,6.80
2018,04,26,06,16,6.80
2018,04,26,06,17,6.80
2018,04,26,06,18,6.80
2018,04,26,06,19,6.80
2018,04,26,06,20,6.70
2018,04,26,06,21,6.70
2018,04,26,06,22,6.70
2018,04,26,06,23,6.70
2018,04,26,06,24,6.70
2018,04,26,06,25,6.70
2018,04,26,06,26,6.70
2018,04,26,06,27,6.80
2018,04,26,06,28,6.80
2018,04,26,06,29,6.80
2018,04,26,06,30,6.80
2018,04,26,06,31,6.80
2018,04,26,06,32,6.80
2018,04,26,06,33,6.80
2018,04,26,06,34,6.80
2018,04,26,06,35,6.80
2018,04,26,06,36,6.80
2018,04,26,06,37,6.80
2018,04,26,06,38,6.80
2018,04,26,06,39,6.90
2018,04,26,06,40,6.90
2018,04,26,06,41,6.90
2018,04,26,06,42,6.90
2018,04,26,06,43,6.90
2018,04,26,06,44,6.90
2018,04,26,06,45,6.90
2018,04,26,06,46,6.90
2018,04,26,06,47,6.90
2018,04,26,06,48,6.90
2018,04,26,06,49,7.00
2018,04,26,06,50,7.00
2018,04,26,06,51,7.00
2018,04,26,06,52,7.10
2018,04,26,06,53,7.10
2018,04,26,06,54,7.10
2018,04,26,06,55,7.20
2018,04,26,06,56,7.20
2018,04,26,06,57,7.20
2018,04,26,06,58,7.30
2018,04,26,06,59,7.30
2018,04,26,07,00,7.30
2018,04,26,07,01,7.40
2018,04,26,07,02,7.40
2018,04,26,07,03,7.50
2018,04,26,07,04,7.50
2018,04,26,07,05,7.60
2018,04,26,07,06,7.60
2018,04,26,07,07,7.60
2018,04,26,07,08,7.70
2018,04,26,07,09,7.70
2018,04,26,07,10,7.80
2018,04,26,07,11,7.80
2018,04,26,07,12,7.90
2018,04,26,07,13,7.90
2018,04,26,07,14,8.00
2018,04,26,07,15,8.00
2018,04,26,07,16,8.00
2018,04,26,07,17,8.10
2018,04,26,07,18,8.10
2018,04,26,07,19,8.20
2018,04,26,07,20,8.20
2018,04,26,07,21,8.20
2018,04,26,07,22,8.30
2018,04,26,07,23,8.30
2018,04,26,07,24,8.40
2018,04,26,07,25,8.40
2018,04,26,07,26,8.50
2018,04,26,07,27,8.60
2018,04,26,07,28,8.70
2018,04,26,07,29,8.70
2018,04,26,07,30,8.80
2018,04,26,07,31,8.90
2018,04,26,07,32,9.00
2018,04,26,07,33,9.00
2018,04,26,07,34,9.00
2018,04,26,07,35,9.00
2018,04,26,07,36,9.00
2018,04,26,07,37,9.00
2018,04,26,07,38,9.30
2018,04,26,07,39,9.40
2018,04,26,07,40,9.50
2018,04,26,07,41,9.50
2018,04,26,07,42,9.60
2018,04,26,07,43,9.60
2018,04,26,07,44,9.70
2018,04,26,07,45,9.70
2018,04,26,07,46,9.80
2018,04,26,07,47,9.80
2018,04,26,07,48,9.80
2018,04,26,07,49,9.90
2018,04,26,07,50,9.90
2018,04,26,07,51,10.00
2018,04,26,07,52,10.10
2018,04,26,07,53,10.20
2018,04,26,07,54,10.20
2018,04,26,07,55,10.30
2018,04,26,07,56,10.30
2018,04,26,07,57,10.40
2018,04,26,07,58,10.60
2018,04,26,07,59,10.70
2018,04,26,08,00,10.80
2018,04,26,08,01,10.80
2018,04,26,08,02,10.90
2018,04,26,08,03,11.00
2018,04,26,08,04,11.10
2018,04,26,08,05,11.20
2018,04,26,08,06,11.30
2018,04,26,08,07,11.40
2018,04,26,08,08,11.40
2018,04,26,08,09,11.50
2018,04,26,08,10,11.60
2018,04,26,08,11,11.70
2018,04,26,08,12,11.80
2018,04,26,08,13,11.80
2018,04,26,08,14,11.90
2018,04,26,08,15,11.90
2018,04,26,08,16,12.00
2018,04,26,08,17,12.10
2018,04,26,08,18,12.10
2018,04,26,08,19,12.20
2018,04,26,08,20,12.30
2018,04,26,08,21,12.40
2018,04,26,08,22,12.40
2018,04,26,08,23,12.50
2018,04,26,08,24,12.60
2018,04,26,08,25,12.60
2018,04,26,08,26,12.60
2018,04,26,08,27,12.70
2018,04,26,08,28,12.70
2018,04,26,08,29,12.70
2018,04,26,08,30,12.80
2018,04,26,08,31,12.80
2018,04,26,08,32,12.90
2018,04,26,08,33,12.90
2018,04,26,08,34,13.00
2018,04,26,08,35,13.10
2018,04,26,08,36,13.20
2018,04,26,08,37,13.30
2018,04,26,08,38,13.30
2018,04,26,08,39,13.40
2018,04,26,08,40,13.50
2018,04,26,08,41,13.60
2018,04,26,08,42,13.70
2018,04,26,08,43,13.80
2018,04,26,08,44,13.90
2018,04,26,08,45,13.90
2018,04,26,08,46,14.00
2018,04,26,08,47,14.00
2018,04,26,08,48,14.10
2018,04,26,08,49,14.20
2018,04,26,08,50,14.30
2018,04,26,08,51,14.40
2018,04,26,08,52,14.50
2018,04,26,08,53,14.60
2018,04,26,08,54,14.60
2018,04,26,08,55,14.60
2018,04,26,08,56,14.70
2018,04,26,08,57,14.70
2018,04,26,08,58,14.70
2018,04,26,08,59,14.70
2018,04,26,09,00,14.80
2018,04,26,09,01,14.80
2018,04,26,09,02,14.80
2018,04,26,09,03,14.80
2018,04,26,09,04,14.80
2018,04,26,09,05,14.80
2018,04,26,09,06,14.90
2018,04,26,09,07,14.90
2018,04,26,09,08,15.00
2018,04,26,09,09,15.00
2018,04,26,09,10,15.00
2018,04,26,09,11,15.10
2018,04,26,09,12,15.10
2018,04,26,09,13,15.20
2018,04,26,09,14,15.20
2018,04,26,09,15,15.30
2018,04,26,09,16,15.30
2018,04,26,09,17,15.30
2018,04,26,09,18,15.30
2018,04,26,09,19,15.30
2018,04,26,09,20,15.30
2018,04,26,09,21,15.40
2018,04,26,09,22,15.40
2018,04,26,09,23,15.50
2018,04,26,09,24,15.50
2018,04,26,09,25,15.60
2018,04,26,09,26,15.60
2018,04,26,09,27,15.60
2018,04,26,09,28,15.70
2018,04,26,09,29,15.70
2018,04,26,09,30,15.70
2018,04,26,09,31,15.70
2018,04,26,09,32,15.80
2018,04,26,09,33,15.80
2018,04,26,09,34,15.80
2018,04,26,09,35,15.80
2018,04,26,09,36,15.80
2018,04,26,09,37,15.80
2018,04,26,09,38,15.80
2018,04,26,09,39,15.80
2018,04,26,09,40,15.80
2018,04,26,09,41,15.80
2018,04,26,09,42,15.80
2018,04,26,09,43,15.80
2018,04,26,09,44,15.80
2018,04,26,09,45,15.80
2018,04,26,09,46,15.80
2018,04,26,09,47,15.80
2018,04,26,09,48,15.80
2018,04,26,09,49,15.80
2018,04,26,09,50,15.90
2018,04,26,09,51,15.90
2018,04,26,09,52,15.90
2018,04,26,09,53,15.90
2018,04,26,09,54,16.00
2018,04,26,09,55,16.00
2018,04,26,09,56,16.10
2018,04,26,09,57,16.10
2018,04,26,09,58,16.10
2018,04,26,09,59,16.10
2018,04,26,10,00,16.10
2018,04,26,10,01,16.10
2018,04,26,10,02,16.10
2018,04,26,10,03,16.10
2018,04,26,10,04,16.20
2018,04,26,10,05,16.30
2018,04,26,10,06,16.30
2018,04,26,10,07,16.30
2018,04,26,10,08,16.30
2018,04,26,10,09,16.30
2018,04,26,10,10,16.30
2018,04,26,10,11,16.30
2018,04,26,10,12,16.30
2018,04,26,10,13,16.40
2018,04,26,10,14,16.40
2018,04,26,10,15,16.40
2018,04,26,10,16,16.50
2018,04,26,10,17,16.50
2018,04,26,10,18,16.50
2018,04,26,10,19,16.50
2018,04,26,10,20,16.50
2018,04,26,10,21,16.50
2018,04,26,10,22,16.50
2018,04,26,10,23,16.60
2018,04,26,10,24,16.60
2018,04,26,10,25,16.70
2018,04,26,10,26,16.80
2018,04,26,10,27,16.80
2018,04,26,10,28,16.80
2018,04,26,10,29,16.80
2018,04,26,10,30,16.80
2018,04,26,10,31,16.80
2018,04,26,10,32,16.80
2018,04,26,10,33,16.80
2018,04,26,10,34,16.80
2018,04,26,10,35,16.80
2018,04,26,10,36,16.80
2018,04,26,10,37,16.80
2018,04,26,10,38,16.90
2018,04,26,10,39,17.00
2018,04,26,10,40,17.10
2018,04,26,10,41,17.10
2018,04,26,10,42,17.20
2018,04,26,10,43,17.20
2018,04,26,10,44,17.20
2018,04,26,10,45,17.30
2018,04,26,10,46,17.30
2018,04,26,10,47,17.30
2018,04,26,10,48,17.30
2018,04,26,10,49,17.30
2018,04,26,10,50,17.30
2018,04,26,10,51,17.30
2018,04,26,10,52,17.40
2018,04,26,10,53,17.40
2018,04,26,10,54,17.40
2018,04,26,10,55,17.40
2018,04,26,10,56,17.30
2018,04,26,10,57,17.30
2018,04,26,10,58,17.30
2018,04,26,10,59,17.30
2018,04,26,11,00,17.30
2018,04,26,11,01,17.20
2018,04,26,11,02,17.20
2018,04,26,11,03,17.20
2018,04,26,11,04,17.20
2018,04,26,11,05,17.20
2018,04,26,11,06,17.30
2018,04,26,11,07,17.30
2018,04,26,11,08,17.40
2018,04,26,11,09,17.40
2018,04,26,11,10,17.50
2018,04,26,11,11,17.50
2018,04,26,11,12,17.50
2018,04,26,11,13,17.50
2018,04,26,11,14,17.50
2018,04,26,11,15,17.50
2018,04,26,11,16,17.50
2018,04,26,11,17,17.60
2018,04,26,11,18,17.60
2018,04,26,11,19,17.70
2018,04,26,11,20,17.70
2018,04,26,11,21,17.70
2018,04,26,11,22,17.70
2018,04,26,11,23,17.70
2018,04,26,11,24,17.70
2018,04,26,11,25,17.80
2018,04,26,11,26,17.80
2018,04,26,11,27,17.90
2018,04,26,11,28,17.90
2018,04,26,11,29,18.00
2018,04,26,11,30,17.90
2018,04,26,11,31,18.00
2018,04,26,11,32,18.00
2018,04,26,11,33,17.90
2018,04,26,11,34,17.90
2018,04,26,11,35,17.90
2018,04,26,11,36,18.00
2018,04,26,11,37,18.10
2018,04,26,11,38,18.10
2018,04,26,11,39,18.20
2018,04,26,11,40,18.30
2018,04,26,11,41,18.30
2018,04,26,11,42,18.40
2018,04,26,11,43,18.50
2018,04,26,11,44,18.60
2018,04,26,11,45,18.60
2018,04,26,11,46,18.60
2018,04,26,11,47,18.60
2018,04,26,11,48,18.60
2018,04,26,11,49,18.60
2018,04,26,11,50,18.60
2018,04,26,11,51,18.60
2018,04,26,11,52,18.60
2018,04,26,11,53,18.60
2018,04,26,11,54,18.70
2018,04,26,11,55,18.70
2018,04,26,11,56,18.70
2018,04,26,11,57,18.70
2018,04,26,11,58,18.70
2018,04,26,11,59,18.80
2018,04,26,12,00,18.80
2018,04,26,12,01,18.80
2018,04,26,12,02,18.80
2018,04,26,12,03,18.90
2018,04,26,12,04,19.00
2018,04,26,12,05,19.10
2018,04,26,12,06,19.10
2018,04,26,12,07,19.20
2018,04,26,12,08,19.30
2018,04,26,12,09,19.30
2018,04,26,12,10,19.50
2018,04,26,12,11,19.50
2018,04,26,12,12,19.60
2018,04,26,12,13,19.50
2018,04,26,12,14,19.50
2018,04,26,12,15,19.40
2018,04,26,12,16,19.40
2018,04,26,12,17,19.40
2018,04,26,12,18,19.40
2018,04,26,12,19,19.40
2018,04,26,12,20,19.30
2018,04,26,12,21,19.30
2018,04,26,12,22,19.30
2018,04,26,12,23,19.30
2018,04,26,12,24,19.30
2018,04,26,12,25,19.30
2018,04,26,12,26,19.40
2018,04,26,12,27,19.30
2018,04,26,12,28,19.30
2018,04,26,12,29,19.30
2018,04,26,12,30,19.30
2018,04,26,12,31,19.30
2018,04,26,12,32,19.30
2018,04,26,12,33,19.30
2018,04,26,12,34,19.30
2018,04,26,12,35,19.40
2018,04,26,12,36,19.40
2018,04,26,12,37,19.50
2018,04,26,12,38,19.50
2018,04,26,12,39,19.60
2018,04,26,12,40,19.60
2018,04,26,12,41,19.60
2018,04,26,12,42,19.60
2018,04,26,12,43,19.50
2018,04,26,12,44,19.40
2018,04,26,12,45,19.40
2018,04,26,12,46,19.30
2018,04,26,12,47,19.30
2018,04,26,12,48,19.30
2018,04,26,12,49,19.30
2018,04,26,12,50,19.40
2018,04,26,12,51,19.40
2018,04,26,12,52,19.40
2018,04,26,12,53,19.50
2018,04,26,12,54,19.50
2018,04,26,12,55,19.60
2018,04,26,12,56,19.60
2018,04,26,12,57,19.70
2018,04,26,12,58,19.70
2018,04,26,12,59,19.70
2018,04,26,13,00,19.70
2018,04,26,13,01,19.70
2018,04,26,13,02,19.70
2018,04,26,13,03,19.80
2018,04,26,13,04,19.90
2018,04,26,13,05,20.00
2018,04,26,13,06,20.10
2018,04,26,13,07,20.10
2018,04,26,13,08,20.10
2018,04,26,13,09,20.10
2018,04,26,13,10,20.10
2018,04,26,13,11,20.10
2018,04,26,13,12,20.00
2018,04,26,13,13,20.00
2018,04,26,13,14,20.00
2018,04,26,13,15,20.10
2018,04,26,13,16,20.10
2018,04,26,13,17,20.10
2018,04,26,13,18,20.20
2018,04,26,13,19,20.20
2018,04,26,13,20,20.30
2018,04,26,13,21,20.30
2018,04,26,13,22,20.30
2018,04,26,13,23,20.40
2018,04,26,13,24,20.40
2018,04,26,13,25,20.40
2018,04,26,13,26,20.40
2018,04,26,13,27,20.40
2018,04,26,13,28,20.40
2018,04,26,13,29,20.50
2018,04,26,13,30,20.50
2018,04,26,13,31,20.50
2018,04,26,13,32,20.50
2018,04,26,13,33,20.40
2018,04,26,13,34,20.40
2018,04,26,13,35,20.30
2018,04,26,13,36,20.20
2018,04,26,13,37,20.10
2018,04,26,13,38,20.10
2018,04,26,13,39,20.20
2018,04,26,13,40,20.20
2018,04,26,13,41,20.10
2018,04,26,13,42,20.10
2018,04,26,13,43,20.10
2018,04,26,13,44,20.00
2018,04,26,13,45,19.90
2018,04,26,13,46,19.90
2018,04,26,13,47,19.90
2018,04,26,13,48,19.90
2018,04,26,13,49,19.90
2018,04,26,13,50,19.90
2018,04,26,13,51,20.00
2018,04,26,13,52,20.00
2018,04,26,13,53,20.10
2018,04,26,13,54,20.10
2018,04,26,13,55,20.10
2018,04,26,13,56,20.10
2018,04,26,13,57,20.10
2018,04,26,13,58,20.10
2018,04,26,13,59,20.00
2018,04,26,14,00,20.00
2018,04,26,14,01,20.00
2018,04,26,14,02,19.90
2018,04,26,14,03,19.90
2018,04,26,14,04,19.90
2018,04,26,14,05,19.80
2018,04,26,14,06,19.80
2018,04,26,14,07,19.80
2018,04,26,14,08,19.90
2018,04,26,14,09,19.90
2018,04,26,14,10,20.00
2018,04,26,14,11,20.00
2018,04,26,14,12,20.10
2018,04,26,14,13,20.20
2018,04,26,14,14,20.20
2018,04,26,14,15,20.30
2018,04,26,14,16,20.30
2018,04,26,14,17,20.40
2018,04,26,14,18,20.50
2018,04,26,14,19,20.50
2018,04,26,14,20,20.50
2018,04,26,14,21,20.60
2018,04,26,14,22,20.70
2018,04,26,14,23,20.70
2018,04,26,14,24,20.80
2018,04,26,14,25,20.90
2018,04,26,14,26,21.00
2018,04,26,14,27,21.10
2018,04,26,14,28,21.20
2018,04,26,14,29,21.30
2018,04,26,14,30,21.40
2018,04,26,14,31,21.50
2018,04,26,14,32,21.60
2018,04,26,14,33,21.70
2018,04,26,14,34,21.70
2018,04,26,14,35,21.80
2018,04,26,14,36,21.90
2018,04,26,14,37,22.00
2018,04,26,14,38,22.00
2018,04,26,14,39,22.10
2018,04,26,14,40,22.10
2018,04,26,14,41,22.10
2018,04,26,14,42,22.10
2018,04,26,14,43,22.00
2018,04,26,14,44,21.90
2018,04,26,14,45,21.90
2018,04,26,14,46,21.80
2018,04,26,14,47,21.80
2018,04,26,14,48,21.70
2018,04,26,14,49,21.70
2018,04,26,14,50,21.60
2018,04,26,14,51,21.60
2018,04,26,14,52,21.60
2018,04,26,14,53,21.50
2018,04,26,14,54,21.40
2018,04,26,14,55,21.40
2018,04,26,14,56,21.40
2018,04,26,14,57,21.40
2018,04,26,14,58,21.40
2018,04,26,14,59,21.50
2018,04,26,15,00,21.50
2018,04,26,15,01,21.50
2018,04,26,15,02,21.50
2018,04,26,15,03,21.50
2018,04,26,15,04,21.60
2018,04,26,15,05,21.60
2018,04,26,15,06,21.60
2018,04,26,15,07,21.70
2018,04,26,15,08,21.70
2018,04,26,15,09,21.80
2018,04,26,15,10,21.80
2018,04,26,15,11,21.80
2018,04,26,15,12,21.80
2018,04,26,15,13,21.90
2018,04,26,15,14,21.90
2018,04,26,15,15,21.90
2018,04,26,15,16,21.80
2018,04,26,15,17,21.90
2018,04,26,15,18,21.90
2018,04,26,15,19,21.90
2018,04,26,15,20,22.00
2018,04,26,15,21,22.00
2018,04,26,15,22,22.10
2018,04,26,15,23,22.10
2018,04,26,15,24,22.10
2018,04,26,15,25,22.10
2018,04,26,15,26,22.10
2018,04,26,15,27,22.10
2018,04,26,15,28,22.20
2018,04,26,15,29,22.20
2018,04,26,15,30,22.20
2018,04,26,15,31,22.20
2018,04,26,15,32,22.20
2018,04,26,15,33,22.20
2018,04,26,15,34,22.30
2018,04,26,15,35,22.30
2018,04,26,15,36,22.40
2018,04,26,15,37,22.40
2018,04,26,15,38,22.40
2018,04,26,15,39,22.50
2018,04,26,15,40,22.60
2018,04,26,15,41,22.60
2018,04,26,15,42,22.70
2018,04,26,15,43,22.70
2018,04,26,15,44,22.70
2018,04,26,15,45,22.70
2018,04,26,15,46,22.70
2018,04,26,15,47,22.70
2018,04,26,15,48,22.70
2018,04,26,15,49,22.80
2018,04,26,15,50,22.80
2018,04,26,15,51,22.80
2018,04,26,15,52,22.90
2018,04,26,15,53,22.90
2018,04,26,15,54,23.00
2018,04,26,15,55,23.00
2018,04,26,15,56,23.10
2018,04,26,15,57,23.10
2018,04,26,15,58,23.00
2018,04,26,15,59,23.00
2018,04,26,16,00,22.90
2018,04,26,16,01,22.90
2018,04,26,16,02,22.90
2018,04,26,16,03,22.90
2018,04,26,16,04,22.90
2018,04,26,16,05,22.90
2018,04,26,16,06,22.90
2018,04,26,16,07,23.00
2018,04,26,16,08,23.00
2018,04,26,16,09,23.00
2018,04,26,16,10,22.90
2018,04,26,16,11,23.00
2018,04,26,16,12,23.00
2018,04,26,16,13,23.00
2018,04,26,16,14,23.10
2018,04,26,16,15,23.10
2018,04,26,16,16,23.10
2018,04,26,16,17,23.10
2018,04,26,16,18,23.20
2018,04,26,16,19,23.20
2018,04,26,16,20,23.20
2018,04,26,16,21,23.20
2018,04,26,16,22,23.20
2018,04,26,16,23,23.20
2018,04,26,16,24,23.20
2018,04,26,16,25,23.20
2018,04,26,16,26,23.30
2018,04,26,16,27,23.30
2018,04,26,16,28,23.30
2018,04,26,16,29,23.30
2018,04,26,16,30,23.40
2018,04,26,16,31,23.40
2018,04,26,16,32,23.40
2018,04,26,16,33,23.50
2018,04,26,16,34,23.50
2018,04,26,16,35,23.60
2018,04,26,16,36,23.70
2018,04,26,16,37,23.70
2018,04,26,16,38,23.80
2018,04,26,16,39,23.80
2018,04,26,16,40,23.90
2018,04,26,16,41,23.90
2018,04,26,16,42,24.00
2018,04,26,16,43,24.00
2018,04,26,16,44,24.10
2018,04,26,16,45,24.10
2018,04,26,16,46,24.10
2018,04,26,16,47,24.10
2018,04,26,16,48,24.10
2018,04,26,16,49,24.10
2018,04,26,16,50,24.10
2018,04,26,16,51,24.20
2018,04,26,16,52,24.20
2018,04,26,16,53,24.20
2018,04,26,16,54,24.30
2018,04,26,16,55,24.30
2018,04,26,16,56,24.30
2018,04,26,16,57,24.30
2018,04,26,16,58,24.30
2018,04,26,16,59,24.30
2018,04,26,17,00,24.30
2018,04,26,17,01,24.20
2018,04,26,17,02,24.10
2018,04,26,17,03,24.10
2018,04,26,17,04,24.10
2018,04,26,17,05,24.10
2018,04,26,17,06,24.00
2018,04,26,17,07,24.00
2018,04,26,17,08,23.90
2018,04,26,17,09,23.90
2018,04,26,17,10,23.90
2018,04,26,17,11,23.90
2018,04,26,17,12,23.90
2018,04,26,17,13,23.90
2018,04,26,17,14,24.00
2018,04,26,17,15,24.00
2018,04,26,17,16,24.10
2018,04,26,17,17,24.10
2018,04,26,17,18,24.10
2018,04,26,17,19,24.10
2018,04,26,17,20,24.00
2018,04,26,17,21,24.00
2018,04,26,17,22,24.00
2018,04,26,17,23,23.90
2018,04,26,17,24,23.90
2018,04,26,17,25,23.90
2018,04,26,17,26,23.80
2018,04,26,17,27,23.80
2018,04,26,17,28,23.80
2018,04,26,17,29,23.80
2018,04,26,17,30,23.80
2018,04,26,17,31,23.80
2018,04,26,17,32,23.80
2018,04,26,17,33,23.90
2018,04,26,17,34,23.90
2018,04,26,17,35,23.90